Billings, MT

1:02 AM MDT on April 28, 2017 (GMT -0600)
Billings Logan International

Weather History for KBIL - December, 2012

Change the Weather History Date:

Friday, December 14, 2012

  Actual Average Record
Temperature  
Mean Temperature 30 °F 26 °F  
Max Temperature 39 °F 35 °F 56 °F (1962)
Min Temperature 21 °F 18 °F -18 °F (2008)
Degree Days  
Heating Degree Days 35 39  
Month to date heating degree days 416 526  
Since 1 July heating degree days 1798 2154  
Cooling Degree Days 0 0  
Month to date cooling degree days 0 0  
Year to date cooling degree days 958 636  
Moisture  
Dew Point 23 °F    
Average Humidity 72    
Maximum Humidity 84    
Minimum Humidity 59    
Precipitation  
Precipitation 0.00 in 0.02 in 0.27 in (2014)
Month to date precipitation 0.09 0.24  
Year to date precipitation 6.95 13.40  
Snow  
Snow 0.00 in 0.20 in 6.20 in (2015)
Month to date snowfall 0.9 3.6  
Since 1 July snowfall 12.5 15.3  
Snow Depth 0.00 in    
Sea Level Pressure  
Sea Level Pressure 29.74 in    
Wind  
Wind Speed 7 mph (WSW)    
Max Wind Speed 15 mph    
Max Gust Speed 15 mph    
Visibility 10 miles    
Events      
T = Trace of Precipitation, MM = Missing Value Source: NWS Daily Summary

Daily Weather History Graph

Daily Weather History Graph

Search for Another Location

Airport or City:

Trip Planner

Search our weather history database for the weather conditions in past years. The results will help you decide how hot, cold, wet, or windy it might be!

Date:

Astronomy

Dec. 14, 2012 Rise Set
Actual Time 7:48 AM MST 4:30 PM MST
Civil Twilight 7:13 AM MST 5:04 PM MST
Nautical Twilight 6:36 AM MST 5:42 PM MST
Astronomical Twilight 5:59 AM MST 6:18 PM MST
Moon 8:52 AM MST (12/14) 6:30 PM MST (12/14)
Length of Visible Light 9h 50m
Length of Day
8h 41m
Waxing Crescent, 3% of the Moon is Illuminated
Dec 14
Waxing Crescent
Dec 19
First Quarter
Dec 28
Full
Jan 4
Last Quarter
Jan 11
New

Hourly Weather History & Observations

Time (MST) Temp. Windchill Dew Point Humidity Pressure Visibility Wind Dir Wind Speed Gust Speed Precip Events Conditions
12:53 AM 24.1 °F 12.0 °F 19.0 °F 81% 29.81 in 10.0 mi SW 13.8 mph - N/A   Clear
1:53 AM 25.0 °F 13.1 °F 19.0 °F 78% 29.80 in 10.0 mi SW 13.8 mph - N/A   Clear
2:53 AM 24.1 °F 15.2 °F 19.0 °F 81% 29.79 in 10.0 mi WSW 8.1 mph - N/A   Clear
3:53 AM 27.0 °F 17.3 °F 19.0 °F 72% 29.76 in 10.0 mi SW 10.4 mph - N/A   Clear
4:53 AM 23.0 °F 12.4 °F 17.6 °F 80% 29.67 in 10.0 mi SSW 10.4 mph - N/A   Clear
5:53 AM 24.1 °F 19.7 °F 19.0 °F 81% 29.77 in 10.0 mi SSW 3.5 mph - N/A   Clear
6:53 AM 21.9 °F - 18.0 °F 85% 29.76 in 10.0 mi Calm Calm - N/A   Partly Cloudy
7:53 AM 25.0 °F 18.1 °F 19.0 °F 78% 29.77 in 10.0 mi SSW 5.8 mph - N/A   Partly Cloudy
8:53 AM 21.9 °F 11.7 °F 17.1 °F 82% 29.78 in 10.0 mi SSW 9.2 mph - N/A   Scattered Clouds
9:53 AM 28.0 °F 20.0 °F 21.0 °F 75% 29.75 in 10.0 mi SSW 8.1 mph - N/A   Scattered Clouds
10:53 AM 36.0 °F 32.1 °F 24.1 °F 62% 29.73 in 10.0 mi North 4.6 mph - N/A   Scattered Clouds
11:53 AM 37.9 °F 35.5 °F 24.1 °F 57% 29.70 in 10.0 mi NW 3.5 mph - N/A   Scattered Clouds
12:53 PM 35.1 °F - 24.1 °F 64% 29.68 in 10.0 mi Calm Calm - N/A   Scattered Clouds
1:53 PM 36.0 °F 33.3 °F 25.0 °F 64% 29.66 in 10.0 mi SW 3.5 mph - N/A   Mostly Cloudy
2:53 PM 36.0 °F 31.1 °F 26.1 °F 67% 29.67 in 10.0 mi SSW 5.8 mph - N/A   Overcast
3:53 PM 37.9 °F 35.5 °F 28.0 °F 68% 29.66 in 10.0 mi NW 3.5 mph - N/A   Overcast
4:53 PM 35.1 °F 29.3 °F 26.1 °F 70% 29.69 in 10.0 mi SW 6.9 mph - N/A   Overcast
5:53 PM 34.0 °F 31.0 °F 25.0 °F 70% 29.70 in 10.0 mi West 3.5 mph - N/A   Mostly Cloudy
6:53 PM 33.1 °F 25.5 °F 27.0 °F 78% 29.72 in 10.0 mi NW 9.2 mph - N/A   Mostly Cloudy
7:53 PM 33.1 °F 26.9 °F 27.0 °F 78% 29.75 in 10.0 mi NW 6.9 mph - N/A   Mostly Cloudy
8:53 PM 32.0 °F 27.5 °F 27.0 °F 82% 29.77 in 10.0 mi West 4.6 mph - N/A   Overcast
9:53 PM 32.0 °F 27.5 °F 27.0 °F 82% 29.76 in 10.0 mi SW 4.6 mph - N/A   Overcast
10:53 PM 32.0 °F 22.5 °F 26.1 °F 79% 29.76 in 10.0 mi NW 12.7 mph - N/A   Overcast
11:53 PM 32.0 °F 23.6 °F 28.0 °F 85% 29.78 in 10.0 mi NNW 10.4 mph - N/A   Overcast